Theta_e
320 320 319 320 316 308 310 309 309 311 312 312 312 312 312 311 311 311 312 313 312 312 312 310 308 308 317 324 324 325 320 318 314 312 323 330 330 332 339 343 349 356 357 357 354 355 355
321 320 320 320 320 311 308 310 309 310 311 311 312 312 312 312 311 310 309 310 312 310 311 310 309 309 318 327 321 325 325 325 313 315 324 329 330 331 333 341 352 355 357 356 354 354 354
321 320 320 320 321 317 309 309 309 310 311 311 311 311 312 312 312 312 312 309 310 310 307 306 307 316 322 324 320 319 324 320 315 316 327 329 328 330 332 347 351 355 360 356 354 354 355
322 321 320 320 321 321 311 308 310 310 310 310 310 310 311 311 311 311 312 312 311 313 306 306 307 318 327 321 321 325 327 318 317 321 327 327 327 327 329 344 351 356 359 365 356 355 354
320 321 321 321 320 321 314 308 310 310 310 310 310 310 310 310 310 310 311 311 315 312 306 308 319 322 327 317 318 325 326 323 321 321 324 325 326 326 329 339 352 358 364 365 362 354 356
319 320 320 320 320 321 316 308 309 310 310 310 310 310 310 310 310 311 311 315 318 312 317 320 321 325 325 321 322 324 325 325 323 324 326 326 325 328 331 344 352 357 360 361 364 359 358
319 320 320 320 319 321 314 308 309 310 310 310 310 310 310 310 311 311 311 321 327 328 326 327 326 325 323 322 323 321 323 325 323 324 326 326 326 327 332 344 345 346 354 361 357 356 355
319 320 320 319 319 321 311 308 310 310 311 310 310 310 310 310 311 311 312 324 322 322 325 327 323 322 322 324 323 323 320 322 321 323 324 324 324 326 331 341 345 346 353 360 359 355 353
319 318 318 319 319 319 308 309 310 310 310 310 310 310 310 310 312 312 319 322 322 322 326 324 323 322 322 324 324 324 320 321 320 321 324 326 324 325 329 339 345 348 350 358 360 356 352
317 317 317 317 319 315 309 310 310 310 310 310 310 310 310 311 316 322 322 322 322 323 330 326 324 324 323 322 325 323 322 323 323 320 321 324 327 326 327 339 345 347 355 355 359 357 361
316 315 316 317 318 314 310 309 311 311 311 310 311 311 313 314 316 319 321 321 322 324 337 326 325 324 325 324 325 324 321 323 322 322 321 322 325 326 326 331 344 343 346 357 355 358 356
316 315 315 315 317 320 316 309 310 311 311 311 314 317 317 317 314 315 320 322 323 331 333 325 325 325 324 326 325 324 322 323 322 323 322 323 326 326 327 334 338 339 349 347 350 356 364
316 315 316 315 316 319 321 311 310 311 311 313 318 317 315 318 325 322 322 324 330 333 324 326 326 325 326 326 326 325 323 322 326 323 323 323 327 328 328 331 338 338 343 359 362 365 363
316 315 315 315 315 318 321 314 310 311 312 316 317 313 320 312 322 322 323 328 334 325 324 322 323 327 329 327 326 325 324 324 325 325 325 325 328 329 329 332 338 335 337 350 357 360 359
316 314 315 315 316 316 320 317 310 311 312 317 315 317 322 323 320 322 325 331 330 325 323 325 323 326 328 327 328 326 326 326 325 326 326 328 324 328 330 331 332 334 337 338 349 354 356
316 313 314 315 315 316 319 319 310 311 313 317 319 326 325 321 323 324 328 323 323 322 323 324 327 327 330 328 325 327 330 328 329 326 326 328 330 327 329 328 328 331 332 336 347 356 354
317 313 313 314 315 316 317 320 310 311 314 319 321 328 324 321 323 326 330 323 321 320 322 324 325 325 327 328 327 328 330 328 328 327 326 327 328 328 328 328 328 327 329 331 333 343 354
316 314 313 313 314 315 316 320 310 311 314 324 325 329 322 323 327 328 325 322 316 321 323 323 322 324 326 327 328 329 330 329 326 325 327 326 327 329 329 327 327 327 327 327 330 337 337
316 313 313 312 313 315 316 319 312 311 312 317 326 329 321 324 329 327 322 321 321 321 321 321 324 324 324 325 327 330 330 327 325 324 328 329 328 327 329 328 329 327 327 327 327 329 335
315 313 313 312 313 314 315 317 317 311 311 316 327 328 324 324 324 325 323 323 321 320 319 319 321 323 324 325 324 326 328 327 324 325 329 325 328 329 331 333 333 334 333 325 326 327 328
314 313 312 312 312 314 314 316 320 311 311 316 325 328 326 324 323 323 323 323 320 321 321 320 324 323 325 328 328 327 327 327 326 330 324 324 327 327 327 329 330 331 333 332 326 329 329
313 312 312 311 311 312 314 315 319 311 312 321 328 331 329 323 324 322 317 320 319 319 318 320 321 324 323 326 329 328 328 327 328 328 328 326 327 326 327 327 331 330 331 332 329 326 327
312 311 311 311 311 312 312 315 318 311 313 328 326 327 328 325 321 321 322 322 320 317 319 316 318 322 326 326 324 325 325 324 327 330 330 329 330 332 332 329 330 330 331 331 331 328 330
311 311 311 311 311 311 312 313 316 311 311 317 325 327 331 326 325 322 321 319 318 319 320 318 316 319 325 325 323 323 324 325 324 324 326 328 329 329 333 334 340 333 333 333 334 342 342
312 311 311 311 311 311 312 312 313 313 311 314 319 326 329 329 325 323 321 319 320 321 317 319 318 318 319 321 325 327 326 327 327 326 325 325 328 327 334 336 335 331 333 331 333 335 337
312 312 312 311 311 311 311 312 312 315 311 312 320 325 328 331 327 324 321 320 322 324 324 322 321 319 318 320 323 329 330 330 333 328 327 325 327 328 331 333 339 336 331 330 329 340 335
312 312 311 312 311 310 311 312 312 313 311 311 318 325 326 330 327 322 321 323 322 322 323 325 323 322 319 320 323 324 334 328 332 330 335 330 331 326 328 333 338 331 331 328 334 341 334
312 312 312 311 311 310 312 312 312 312 311 311 319 324 326 329 327 323 322 324 322 320 322 327 326 322 322 322 323 324 325 326 326 326 332 329 332 333 331 331 335 329 332 335 336 332 333
313 313 312 312 311 311 311 312 312 312 311 309 318 324 324 328 328 323 323 323 321 321 321 323 322 328 324 325 326 324 325 323 324 325 327 325 327 329 334 335 329 328 329 328 330 332 332
Wind_Speed
19 19 16 15 14 13 13 12 13 14 15 15 14 13 12 11 11 11 11 11 11 11 11 9 7 5 4 8 10 5 5 13 15 16 21 18 16 14 15 4 7 6 6 12 8 7 2
17 17 19 16 14 13 13 12 13 14 15 16 16 15 13 12 12 12 12 12 12 11 9 7 6 3 6 11 2 3 4 13 17 20 21 20 13 13 15 2 4 7 9 15 8 6 3
16 16 16 18 15 13 13 13 12 13 13 15 15 15 14 15 15 14 14 12 11 9 6 4 3 4 10 15 3 6 7 12 17 21 18 20 19 14 12 5 15 14 15 12 9 2 4
16 15 15 17 16 13 12 12 12 12 13 13 15 16 15 16 16 15 15 13 9 8 3 2 4 5 8 2 4 7 11 14 16 19 21 15 17 11 16 7 5 9 6 6 6 7 3
17 15 14 14 17 14 12 12 13 12 12 13 14 15 16 17 19 17 16 10 7 4 2 3 4 9 8 1 11 13 12 15 17 17 17 15 14 13 15 13 12 8 6 9 6 4 3
18 16 15 15 16 14 13 13 14 13 12 13 14 15 17 18 21 18 14 7 7 4 3 8 15 10 13 11 10 9 12 13 13 13 14 8 8 13 15 13 10 9 10 7 9 5 3
18 17 17 17 16 14 13 13 15 15 13 13 14 16 18 20 22 20 13 5 5 6 11 10 14 14 4 7 5 11 12 12 13 11 13 14 11 16 19 19 7 6 4 9 9 12 5
17 17 18 18 17 14 14 14 15 15 15 15 16 17 19 20 22 19 7 6 11 13 14 17 6 8 9 4 9 10 13 11 12 13 17 11 16 19 20 6 10 16 13 14 11 15 3
19 19 19 19 17 14 14 15 16 16 16 16 18 18 20 21 23 13 11 16 12 12 11 4 7 12 5 10 10 12 15 16 13 14 15 18 15 19 20 7 6 24 9 13 8 10 3
19 20 20 20 19 14 16 17 17 17 17 17 19 20 21 22 12 11 17 2 6 10 5 3 8 5 6 10 10 14 18 12 9 14 17 16 15 18 18 12 11 8 17 12 11 8 3
19 19 19 20 19 16 16 18 19 19 19 21 22 23 23 19 16 11 8 5 9 10 4 3 6 4 7 9 13 13 14 13 13 13 12 12 12 10 16 17 17 12 12 18 15 8 9
19 19 19 19 19 18 18 18 20 21 22 26 26 23 18 6 9 14 11 9 9 0 4 4 5 8 9 13 7 13 10 13 12 12 12 17 12 7 9 8 12 18 21 16 13 5 4
21 20 19 19 20 20 19 20 21 23 27 30 22 14 9 10 6 7 8 8 3 5 2 5 5 4 8 10 10 9 12 12 11 9 11 13 10 5 9 15 8 7 13 4 3 7 4
22 21 20 19 20 20 20 21 23 26 29 29 12 6 7 17 8 11 9 7 5 8 9 1 6 10 7 13 8 9 11 11 16 14 9 10 12 15 15 17 10 11 12 5 3 3 1
22 22 21 20 20 21 21 22 24 26 29 25 8 8 7 12 8 7 7 8 7 11 7 9 2 2 9 9 6 9 13 13 13 8 11 7 15 14 13 14 13 13 10 16 5 7 6
21 21 21 21 20 21 21 22 24 27 28 24 6 13 13 4 5 8 8 6 6 7 10 6 5 5 8 13 8 3 8 4 1 8 8 6 13 16 13 11 15 16 7 10 5 3 5
22 22 21 21 21 21 21 22 25 29 28 14 4 6 4 7 7 7 10 8 3 5 7 8 12 3 6 4 6 1 10 3 4 1 5 12 11 2 10 10 13 11 12 10 13 8 4
20 21 22 22 21 21 21 21 23 28 32 9 10 10 7 5 8 8 4 4 2 3 4 4 7 9 7 6 10 6 7 9 11 9 3 10 10 8 12 13 16 16 16 17 10 11 10
20 21 22 23 22 20 20 20 20 23 29 11 6 10 6 9 8 10 7 5 8 9 6 8 8 4 10 11 4 10 11 1 3 5 9 11 5 8 13 8 8 13 17 14 15 15 15
20 21 21 23 23 21 19 19 18 20 24 10 5 4 5 7 10 11 4 3 5 7 6 5 5 7 6 7 8 2 1 7 1 4 7 3 12 12 5 8 11 15 18 17 16 12 15
20 21 22 21 22 22 19 17 17 19 22 7 5 7 8 2 3 3 5 6 2 3 3 1 2 6 8 7 7 3 5 2 6 6 5 5 11 13 4 11 10 15 20 20 18 16 17
20 21 20 20 20 21 20 16 16 18 23 6 6 8 10 7 2 7 6 2 4 5 3 5 5 7 7 4 5 8 6 6 3 5 11 10 10 13 14 9 12 15 18 21 18 20 17
20 20 20 21 20 19 20 16 14 15 17 9 10 10 7 7 5 9 1 7 6 6 3 4 7 10 7 13 10 13 8 9 1 5 6 9 13 5 13 7 14 9 10 14 15 9 5
17 18 20 20 20 17 18 17 13 12 12 9 15 11 7 11 8 8 7 5 3 5 7 4 4 7 6 8 8 8 13 7 5 9 12 15 9 3 7 10 11 9 17 17 20 20 19
18 20 20 20 19 17 15 17 14 10 11 10 15 12 9 11 9 10 5 5 3 5 9 4 5 8 8 7 8 7 6 8 9 9 12 3 7 8 1 3 17 1 8 12 14 18 16
19 21 21 20 18 16 14 14 15 9 10 11 13 12 7 7 8 12 6 4 8 9 11 7 4 5 8 8 10 4 1 5 7 4 9 10 7 7 1 5 1 12 15 17 16 6 19
20 21 19 18 17 14 13 13 14 10 8 9 11 6 8 8 15 6 4 2 4 5 1 8 4 5 6 7 9 7 5 12 6 2 6 9 8 9 11 3 3 9 15 11 7 7 13
19 18 17 17 15 14 12 12 13 12 7 8 12 10 8 7 11 6 4 1 2 4 7 2 7 5 6 4 5 3 1 3 4 2 7 5 4 5 6 4 3 11 13 0 1 3 7
18 17 17 17 15 13 13 12 12 12 7 7 8 6 7 5 8 6 6 4 6 7 6 5 1 8 5 5 3 4 1 3 3 4 4 3 2 6 7 3 4 6 9 7 8 5 6
Wind_Direction
13 15 8 2 1 1 2 358 356 359 2 1 359 355 345 340 338 333 327 324 316 311 306 304 306 302 310 226 251 111 207 203 207 198 212 227 223 221 235 300 141 218 99 107 116 135 128
10 9 10 7 3 1 2 1 358 358 3 5 6 3 357 346 338 334 333 328 320 310 304 298 296 295 265 248 341 131 126 181 193 197 211 227 223 228 248 238 354 135 133 122 127 104 88
10 8 4 7 4 0 1 1 359 356 360 2 4 2 360 351 347 340 335 328 324 318 306 284 261 295 264 253 42 263 176 192 199 201 212 221 227 238 236 210 158 139 137 131 154 48 94
4 8 6 2 2 0 0 1 356 353 355 355 359 359 355 348 344 334 327 323 314 312 292 243 206 248 261 22 264 252 188 189 205 210 232 216 235 262 270 110 242 136 114 173 121 160 19
3 4 7 360 1 359 358 358 355 351 346 349 352 353 350 342 337 332 326 324 321 305 273 198 257 218 254 169 212 213 185 201 192 206 224 230 223 245 246 239 226 180 179 128 144 199 118
9 9 6 4 357 358 360 359 355 350 344 340 341 343 344 337 334 329 326 318 285 263 268 244 264 263 254 241 185 174 199 203 189 204 213 212 210 235 239 230 232 201 225 127 138 134 151
12 11 7 1 359 1 2 0 352 347 343 336 336 335 337 333 333 326 321 287 209 203 231 259 140 253 134 93 127 206 173 189 198 190 205 201 216 220 219 221 193 153 86 126 136 145 134
7 4 2 1 0 3 3 355 349 345 340 335 332 329 330 328 330 322 296 260 23 333 310 212 279 297 299 153 198 180 189 186 198 204 212 178 224 235 226 276 57 280 151 151 132 141 113
8 6 3 3 3 4 359 353 348 343 339 332 327 325 323 323 323 299 235 282 322 330 298 160 191 218 183 224 212 171 198 212 190 221 213 231 210 230 243 209 252 261 152 159 130 142 83
7 6 3 3 360 358 355 352 347 342 337 330 323 319 314 320 312 291 248 262 301 325 347 182 179 91 191 215 222 169 210 216 197 219 234 237 251 203 237 200 212 256 96 105 129 170 205
1 2 359 359 357 354 350 348 345 341 337 329 322 312 305 307 302 287 356 311 339 273 322 24 89 114 190 227 117 165 197 237 264 220 222 223 245 246 223 236 166 104 115 145 167 183 151
356 356 355 353 352 350 348 345 343 339 336 330 320 308 301 283 243 256 302 309 284 140 251 146 157 175 195 208 201 135 190 250 267 271 234 257 211 232 246 243 244 120 126 106 102 217 230
355 353 350 352 347 349 347 345 344 340 339 334 324 306 266 242 272 350 313 288 224 259 80 134 240 164 200 268 151 169 196 209 225 207 218 233 250 265 226 238 187 219 193 174 201 206 235
353 349 349 349 347 345 346 345 345 341 341 339 326 289 284 245 272 301 290 260 300 338 83 80 292 142 88 284 135 169 190 211 239 235 218 205 208 210 222 237 179 214 245 201 289 327 58
350 348 348 348 345 344 345 345 345 342 342 340 300 261 237 263 233 259 274 247 298 15 340 358 219 90 297 112 281 184 200 217 205 249 282 309 230 181 196 237 251 206 215 244 168 127 274
346 348 347 346 345 346 344 346 344 341 342 334 301 268 250 235 215 247 267 329 35 354 313 288 342 65 14 300 213 175 309 49 329 306 356 306 303 190 194 193 259 273 267 220 154 156 300
342 345 346 345 344 344 343 347 345 341 342 332 252 263 136 209 227 249 265 60 79 37 318 327 327 267 129 5 286 343 307 324 159 205 311 297 296 175 155 204 235 221 253 263 267 182 141
339 341 344 343 342 343 343 346 348 347 349 4 285 275 153 189 255 237 76 61 336 64 183 331 294 328 75 287 34 30 342 7 353 330 265 223 286 282 255 207 216 250 225 242 258 252 241
336 340 341 340 341 339 340 342 348 350 360 333 269 258 179 223 274 296 101 167 313 7 46 351 344 1 348 316 323 130 201 239 287 284 31 342 262 266 258 238 238 216 247 251 251 271 279
333 335 338 337 338 336 337 337 341 343 347 337 277 281 174 220 265 293 131 206 179 147 291 334 330 285 268 249 263 34 358 273 225 32 356 318 284 300 7 273 273 302 317 249 255 244 260
329 331 331 333 335 335 332 331 335 335 338 324 247 288 317 302 216 341 333 25 310 297 87 232 197 290 355 337 329 301 17 22 303 146 264 263 270 287 278 298 285 284 294 304 249 256 248
325 327 333 332 330 332 331 327 333 333 332 238 281 332 336 286 124 298 142 154 317 39 33 330 278 48 316 349 343 311 314 331 134 315 327 270 253 276 286 261 246 271 251 287 244 245 258
323 328 330 329 328 327 329 327 330 338 339 283 312 318 278 291 252 242 49 83 21 36 130 302 319 301 346 25 1 330 303 295 356 166 31 318 288 354 299 358 339 263 297 285 293 253 286
322 324 325 324 321 320 323 327 324 338 347 311 301 316 284 265 259 260 104 78 69 28 327 349 328 284 37 321 306 261 273 295 276 261 207 238 275 301 283 358 252 24 10 18 357 17 6
317 320 322 318 314 311 314 319 321 317 326 315 296 299 284 283 290 281 163 172 145 168 250 298 55 337 325 286 270 254 260 246 300 308 291 358 311 277 62 338 295 227 24 13 6 327 8
314 316 316 312 310 304 301 313 316 304 312 314 285 292 275 291 287 306 194 156 266 233 176 204 132 307 296 267 256 223 163 61 314 354 311 330 356 289 318 297 293 318 319 319 338 53 345
315 315 313 309 306 295 293 306 307 295 297 311 275 301 273 272 274 293 226 243 205 309 336 188 150 231 225 258 267 297 112 136 215 236 39 337 321 279 278 151 90 264 314 351 67 353 337
319 317 315 312 302 290 286 298 300 294 293 313 270 265 274 286 289 291 328 150 243 249 290 93 258 194 243 257 292 341 67 230 317 265 165 138 316 316 347 318 118 188 46 21 338 286 332
317 312 311 311 300 290 282 289 290 284 270 295 271 222 246 260 328 302 36 51 7 341 335 331 44 235 355 321 351 304 319 218 262 290 128 213 277 357 143 246 127 70 96 76 8 22 341